Location: Clyde
(45.1830°S, 169.3170°E)
Time: 14:31:35
(UTC+13:00)

Cosmos 2228 Rocket - Pass Details

Date: 24 January 2019
Orbit: 617 x 653 km, 82.5° (Epoch: 13 October)

Event Time Altitude Azimuth Distance (km) Brightness Sun altitude
Rises 22:51:12 0° 342° (NNW) 2,888 6.2 -13.3°
Reaches altitude 10° 22:53:27 10° 338° (NNW) 1,991 5.4 -13.6°
Maximum altitude 22:57:47 57° 259° (W) 743 3.7 -14.1°
Drops below altitude 10° 23:02:13 10° 179° (S) 2,026 6.4 -14.6°
Sets 23:04:31 0° 174° (S) 2,945 7.2 -14.9°
